• In Portugal
  • List of Countries
  • For 7 days
  • Water Temperature
  • Satellite Maps
  • Weather Map
  • Weather Widgets
  • user-avatar
    Login

    Hourly Weather Karibib

    Today, 20 October, Friday

    Time Temperature Precipitation Wind Pressure Humidity
    00:00 +19°C° 0 mm 1 mps 665 mmHg 34%
    01:00 +18°C° 0 mm 1 mps 664 mmHg 36%
    02:00 +16°C° 0 mm 1 mps 664 mmHg 36%
    03:00 +16°C° 0 mm 1 mps 664 mmHg 37%
    04:00 +16°C° 0 mm 1 mps 663 mmHg 37%
    05:00 +18°C° 0 mm 1 mps 664 mmHg 34%
    06:00 +19°C° 0 mm 1 mps 665 mmHg 31%
    07:00 +20°C° 0 mm 1 mps 665 mmHg 30%
    08:00 +22°C° 0 mm 1 mps 666 mmHg 24%
    09:00 +25°C° 0 mm 2 mps 666 mmHg 18%
    10:00 +27°C° 0 mm 2 mps 666 mmHg 13%
    11:00 +29°C° 0 mm 3 mps 666 mmHg 12%
    12:00 +30°C° 0 mm 4 mps 666 mmHg 11%
    13:00 +33°C° 0 mm 5 mps 666 mmHg 9%
    14:00 +32°C° 0 mm 6 mps 666 mmHg 10%
    15:00 +32°C° 0 mm 6 mps 666 mmHg 11%
    16:00 +32°C° 0 mm 6 mps 666 mmHg 11%
    17:00 +29°C° 0 mm 5 mps 666 mmHg 15%
    18:00 +27°C° 0 mm 4 mps 666 mmHg 18%
    19:00 +24°C° 0 mm 3 mps 666 mmHg 22%
    20:00 +22°C° 0 mm 3 mps 666 mmHg 24%
    21:00 +21°C° 0 mm 2 mps 666 mmHg 27%
    22:00 +21°C° 0 mm 1 mps 666 mmHg 29%
    23:00 +21°C° 0 mm 1 mps 666 mmHg 30%

    Tomorrow, 21 October, Saturday

    Time Temperature Precipitation Wind Pressure Humidity
    00:00 +20°C° 0 mm 1 mps 665 mmHg 31%
    01:00 +17°C° 0 mm 0 mps 665 mmHg 32%
    02:00 +19°C° 0 mm 1 mps 664 mmHg 32%
    03:00 +19°C° 0 mm 1 mps 664 mmHg 31%
    04:00 +18°C° 0 mm 1 mps 664 mmHg 30%
    05:00 +20°C° 0 mm 1 mps 665 mmHg 26%
    06:00 +21°C° 0 mm 2 mps 665 mmHg 21%
    07:00 +24°C° 0 mm 2 mps 666 mmHg 17%
    08:00 +27°C° 0 mm 3 mps 666 mmHg 14%
    09:00 +30°C° 0 mm 4 mps 667 mmHg 11%
    10:00 +34°C° 0 mm 4 mps 667 mmHg 8%
    11:00 +35°C° 0 mm 3 mps 667 mmHg 7%
    12:00 +36°C° 0 mm 3 mps 667 mmHg 6%
    13:00 +37°C° 0 mm 2 mps 667 mmHg 6%
    14:00 +37°C° 0 mm 3 mps 666 mmHg 6%
    15:00 +37°C° 0 mm 5 mps 666 mmHg 7%
    16:00 +38°C° 0 mm 6 mps 666 mmHg 8%
    17:00 +34°C° 0 mm 5 mps 666 mmHg 12%
    18:00 +32°C° 0 mm 5 mps 666 mmHg 17%
    19:00 +28°C° 0 mm 4 mps 666 mmHg 21%
    20:00 +27°C° 0 mm 3 mps 666 mmHg 23%
    21:00 +26°C° 0 mm 3 mps 666 mmHg 26%
    22:00 +24°C° 0 mm 2 mps 666 mmHg 29%
    23:00 +24°C° 0 mm 2 mps 666 mmHg 29%

    Day after tomorrow, 22 October, Sunday

    Time Temperature Precipitation Wind Pressure Humidity
    00:00 +23°C° 0 mm 1 mps 665 mmHg 30%
    01:00 +22°C° 0 mm 1 mps 665 mmHg 30%
    02:00 +22°C° 0 mm 1 mps 665 mmHg 30%
    03:00 +21°C° 0 mm 1 mps 664 mmHg 30%
    04:00 +21°C° 0 mm 1 mps 664 mmHg 30%
    05:00 +22°C° 0 mm 1 mps 665 mmHg 26%
    06:00 +24°C° 0 mm 1 mps 666 mmHg 23%
    07:00 +26°C° 0 mm 2 mps 666 mmHg 19%
    08:00 +28°C° 0 mm 1 mps 667 mmHg 16%
    09:00 +31°C° 0 mm 1 mps 667 mmHg 12%
    10:00 +33°C° 0 mm 1 mps 668 mmHg 8%
    11:00 +36°C° 0 mm 2 mps 667 mmHg 7%
    12:00 +37°C° 0 mm 3 mps 667 mmHg 7%
    13:00 +38°C° 0 mm 4 mps 667 mmHg 7%
    14:00 +37°C° 0 mm 5 mps 666 mmHg 8%
    15:00 +38°C° 0 mm 6 mps 666 mmHg 9%
    16:00 +36°C° 0 mm 7 mps 666 mmHg 10%
    17:00 +34°C° 0 mm 6 mps 666 mmHg 13%
    18:00 +32°C° 0 mm 5 mps 666 mmHg 17%
    19:00 +28°C° 0 mm 4 mps 666 mmHg 20%
    20:00 +27°C° 0 mm 3 mps 666 mmHg 22%
    21:00 +26°C° 0 mm 2 mps 666 mmHg 25%
    22:00 +25°C° 0 mm 1 mps 666 mmHg 27%
    23:00 +24°C° 0 mm 1 mps 666 mmHg 27%

    23 October, Monday

    Time Temperature Precipitation Wind Pressure Humidity
    00:00 +24°C° 0 mm 1 mps 665 mmHg 28%
    01:00 +23°C° 0 mm 1 mps 665 mmHg 28%
    02:00 +22°C° 0 mm 1 mps 665 mmHg 28%
    03:00 +22°C° 0 mm 1 mps 664 mmHg 28%
    04:00 +19°C° 0 mm 0 mps 664 mmHg 29%
    05:00 +23°C° 0 mm 1 mps 665 mmHg 25%
    06:00 +25°C° 0 mm 1 mps 666 mmHg 22%
    07:00 +26°C° 0 mm 1 mps 666 mmHg 19%
    08:00 +29°C° 0 mm 1 mps 667 mmHg 16%
    09:00 +31°C° 0 mm 1 mps 667 mmHg 13%
    10:00 +33°C° 0 mm 1 mps 667 mmHg 10%
    11:00 +35°C° 0 mm 1 mps 667 mmHg 10%
    12:00 +37°C° 0 mm 2 mps 667 mmHg 9%
    13:00 +38°C° 0 mm 3 mps 666 mmHg 9%
    14:00 +37°C° 0 mm 4 mps 666 mmHg 10%
    15:00 +36°C° 0 mm 6 mps 665 mmHg 11%
    16:00 +36°C° 0 mm 7 mps 665 mmHg 12%
    17:00 +34°C° 0 mm 6 mps 665 mmHg 14%
    18:00 +32°C° 0 mm 4 mps 665 mmHg 17%
    19:00 +29°C° 0 mm 3 mps 666 mmHg 20%
    20:00 +28°C° 0 mm 2 mps 666 mmHg 21%
    21:00 +27°C° 0 mm 2 mps 666 mmHg 23%
    22:00 +27°C° 0 mm 1 mps 666 mmHg 25%
    23:00 +26°C° 0 mm 1 mps 665 mmHg 25%

    24 October, Tuesday

    Time Temperature Precipitation Wind Pressure Humidity
    00:00 +26°C° 0 mm 1 mps 665 mmHg 26%
    01:00 +26°C° 0 mm 1 mps 664 mmHg 27%
    02:00 +25°C° 0 mm 1 mps 664 mmHg 29%
    03:00 +25°C° 0 mm 1 mps 664 mmHg 31%
    04:00 +25°C° 0 mm 2 mps 664 mmHg 33%
    05:00 +26°C° 0 mm 2 mps 664 mmHg 32%
    06:00 +27°C° 0 mm 2 mps 665 mmHg 31%
    07:00 +28°C° 0 mm 2 mps 666 mmHg 30%
    08:00 +30°C° 0 mm 2 mps 666 mmHg 26%
    09:00 +32°C° 0 mm 2 mps 666 mmHg 22%
    10:00 +34°C° 0 mm 1 mps 666 mmHg 18%
    11:00 +36°C° 0 mm 2 mps 666 mmHg 16%
    12:00 +37°C° 0 mm 2 mps 666 mmHg 14%
    13:00 +38°C° 0 mm 3 mps 665 mmHg 12%
    14:00 +38°C° 0 mm 4 mps 665 mmHg 13%
    15:00 +39°C° 0 mm 6 mps 665 mmHg 14%
    16:00 +38°C° 0 mm 7 mps 664 mmHg 15%
    17:00 +35°C° 0 mm 6 mps 665 mmHg 18%
    18:00 +33°C° 0 mm 6 mps 665 mmHg 21%
    19:00 +30°C° 0 mm 5 mps 665 mmHg 24%
    20:00 +29°C° 0 mm 4 mps 665 mmHg 24%
    21:00 +28°C° 0 mm 3 mps 665 mmHg 25%
    22:00 +27°C° 0 mm 2 mps 665 mmHg 25%
    23:00 +26°C° 0 mm 1 mps 665 mmHg 25%

    25 October, Wednesday

    Time Temperature Precipitation Wind Pressure Humidity
    00:00 +25°C° 0 mm 1 mps 665 mmHg 26%
    01:00 +25°C° 0 mm 1 mps 664 mmHg 26%
    02:00 +22°C° 0 mm 0 mps 664 mmHg 26%
    03:00 +21°C° 0 mm 0 mps 664 mmHg 26%
    04:00 +21°C° 0 mm 0 mps 663 mmHg 26%
    05:00 +22°C° 0 mm 0 mps 664 mmHg 23%
    06:00 +24°C° 0 mm 0 mps 665 mmHg 20%
    07:00 +25°C° 0 mm 0 mps 666 mmHg 18%
    08:00 +29°C° 0 mm 1 mps 666 mmHg 14%
    09:00 +31°C° 0 mm 1 mps 666 mmHg 11%
    10:00 +34°C° 0 mm 2 mps 666 mmHg 8%
    11:00 +34°C° 0 mm 3 mps 666 mmHg 8%
    12:00 +35°C° 0 mm 4 mps 666 mmHg 8%
    13:00 +36°C° 0 mm 5 mps 666 mmHg 8%
    14:00 +35°C° 0 mm 6 mps 665 mmHg 9%
    15:00 +34°C° 0 mm 6 mps 665 mmHg 10%
    16:00 +34°C° 0 mm 7 mps 665 mmHg 11%
    17:00 +32°C° 0 mm 6 mps 665 mmHg 13%
    18:00 +29°C° 0 mm 5 mps 665 mmHg 16%
    19:00 +27°C° 0 mm 4 mps 665 mmHg 18%
    20:00 +26°C° 0 mm 3 mps 665 mmHg 21%
    21:00 +25°C° 0 mm 2 mps 665 mmHg 23%
    22:00 +25°C° 0 mm 2 mps 665 mmHg 25%
    23:00 +24°C° 0 mm 2 mps 665 mmHg 26%
    Show more